Regional Weather Roundup
Issued by NWS

Home | Current Version | Previous Version | Graphics & Text | Print | Product List | Glossary On
Versions: 1 2 3 4 5 6 7 8 9 10 11 12 13 14 15 16 17 18 19 20 21 22 23 24 25 26 27 28 29 30 31 32 33 34 35 36 37 38 39 40 41 42 43 44 45 46 47 48 49 50
775
ASUS44 KJAN 260510
RWRMS

MISSISSIPPI HOURLY WEATHER ROUNDUP
NATIONAL WEATHER SERVICE JACKSON MS
1100 PM CST SUN JAN 25 2015

NOTE: "FAIR: INDICATES FEW OR NO CLOUDS BELOW 12,000 FEET WITH NO
SIGNIFICANT WEATHER AND/OR OBSTRUCTIONS TO VISIBILITY.

MSZ001>002-007>008-010>013-018>021-025>028-034>036-260600-
NORTHWEST MISSISSIPPI

CITY           SKY/WX    TMP DP  RH WIND       PRES   REMARKS
CLARKSDALE     CLOUDY    45  37  76 NW16G22   29.96S
CLEVELAND      CLOUDY    46  38  76 NW12      29.96R
GREENWOOD      CLOUDY    47  35  63 NW12      29.96R
GREENVILLE     CLOUDY    48  35  60 NW14      29.97R
GRENADA        CLOUDY    45  34  65 NW10      29.94R
OLIVE BRANCH   CLOUDY    41  39  93 NW14G21   29.91R
OXFORD         CLOUDY    41  32  70 NW16G35   29.93R
TUNICA         CLOUDY    45  36  70 NW23G29   29.95R
$$

MSZ003>006-009-014>017-022>024-029>033-037>039-260600-
NORTHEAST MISSISSIPPI

CITY           SKY/WX    TMP DP  RH WIND       PRES   REMARKS
COLUMBUS AFB   PTCLDY    45  35  66 NW18G25   29.88R
CORINTH        CLOUDY    45  37  76 W10G16    29.85R
GOLDN TRIANGLE PTCLDY    46  37  71 NW10G16   29.87R
STARKVILLE     CLOUDY    46  37  71 W6G16     29.89R
TUPELO         CLOUDY    44  36  73 NW7       29.88R
$$

MSZ040-058-260600-
CENTRAL MISSISSIPPI

CITY           SKY/WX    TMP DP  RH WIND       PRES   REMARKS
JACKSON INTL   CLEAR     53  34  48 NW14G21   29.95R
JACKSON HAWKNS CLEAR     52  34  50 NW21G28   29.95R
MERIDIAN KEY   CLEAR     49  35  58 NW8       29.89R
MERIDIAN NAS   PTCLDY    50  36  58 NW12      29.88S
RAYMOND        FAIR      52  46  82 MISG      29.97R
VICKSBURG      MOCLDY    50  35  56 NW6       29.99R
$$

MSZ059>079-260600-
SOUTH MISSISSIPPI

CITY           SKY/WX    TMP DP  RH WIND       PRES   REMARKS
BROOKHAVEN     FAIR      54  36  50 W10G17    29.96R
HATTIESBURG    CLEAR     53  36  52 W6        29.93R
MCCOMB         CLEAR     53  34  48 NW10      29.95R
NATCHEZ        CLEAR     52  34  50 NW13      30.01R
PINE BELT      CLEAR     52  34  50 W5        29.93R
$$

MSZ080>082-260600-
COASTAL MISSISSIPPI

CITY           SKY/WX    TMP DP  RH WIND       PRES   REMARKS
BILOXI         CLEAR     53  43  70 VRB5      29.93R
PASCAGOULA     CLEAR     52  40  63 W6        29.92R
GULFPORT       CLEAR     54  41  61 W7        29.93R
$$



USA.gov is the U.S. government's official web portal to all federal, state and local government web resources and services.